Regional Weather Roundup
Issued by NWS

Home | Current Version | Previous Version | Text Only | Print | Product List | Glossary On
Versions: 1 2 3 4 5 6 7 8 9 10 11 12 13 14 15 16 17 18 19 20 21 22 23 24 25 26 27
000
ASUS45 KBOU 270507
RWRCO

WEATHER ROUNDUP FOR COLORADO
NATIONAL WEATHER SERVICE DENVER/BOULDER CO
1100 PM MDT WED APR 26 2017

NOTE: "FAIR" INDICATES FEW OR NO CLOUDS BELOW 12000 FEET WITH NO
SIGNIFICANT WEATHER AND/OR OBSTRUCTIONS TO VISIBILITY.

COZ001>005-013-030-031-270600-
...NORTHWEST COLORADO...

CITY           SKY/WX    TMP DP  RH WIND       PRES   REMARKS
CRAIG          CLOUDY    42  32  67 S8        29.72F
HAYDEN         CLOUDY    39  30  70 CALM      29.74F
MEEKER         CLOUDY    42  36  79 CALM      29.73F
MOUNT WERNER   NOT AVBL
STEAMBOAT SPGS CLOUDY    36  34  94 CALM      29.75F
WALDEN           N/A     32  30  93 S6        29.75F WCI  26
$$

COZ006>008-011-270600-
...WEST CENTRAL VALLEYS...

CITY           SKY/WX    TMP DP  RH WIND       PRES   REMARKS
GRAND JUNCTION CLOUDY    52  30  43 E9        29.70F
MONTROSE       CLOUDY    46  32  58 S5        29.79F
EAGLE          MOCLDY    42  31  64 W3        29.77F
RIFLE          MOCLDY    44  35  70 CALM      29.74F
DELTA          CLOUDY    53  31  43 SE8       29.77R
NUCLA          MOCLDY    46  30  53 E10       29.77F
$$

COZ017>023-064>068-270600-
...SOUTHWEST COLORADO...

CITY           SKY/WX    TMP DP  RH WIND       PRES   REMARKS
DURANGO        CLOUDY    45  26  47 N13       29.79F
CORTEZ         MOCLDY    47  34  60 NE20      29.76F
PAGOSA SPRINGS CLOUDY    45  23  42 SW10G22   29.86F
TELLURIDE      CLOUDY    37  22  56 S6        29.88F
WOLF CREEK PAS LGT SNOW  21  19  93 SW18G32   29.95F WCI   6
$$

COZ009-010-012-014-032>034-037-058>063-270600-
...CENTRAL COLORADO...

CITY           SKY/WX    TMP DP  RH WIND       PRES   REMARKS
ASPEN          MOCLDY    34  30  85 CALM      29.77F
BUENA VISTA    MOCLDY    40  19  42 CALM      29.78F
COPPER MTN     FLURRIES  27  18  69 MISG      29.85F
BERTHOUD PASS  CLOUDY    18   5  57 W24G33    29.82S WCI   0
COTTONWOOD PAS CLOUDY    36  19  51 NW5G18    29.82F
GUNNISON       FAIR      40  26  57 W9        29.82F
KREMMLING      CLOUDY    37  34  87 E6        29.77F
LEADVILLE      MOCLDY    29  20  69 NE3       29.80F
MONARCH PASS   CLOUDY    23  18  80 W31       29.96F WCI   5
SALIDA         FAIR      45  20  37 SW13G18   29.85F
SUNLIGHT       MOCLDY    23  21  93 SW8       29.86F WCI  14
WILKERSON PASS FAIR      27  16  63 SW5       29.87F WCI  21
$$

COZ069>075-270600-
...SAN LUIS VALLEY/SANGRE DE CRISTO MOUNTAINS...

CITY           SKY/WX    TMP DP  RH WIND       PRES   REMARKS
ALAMOSA        MOCLDY    40  30  67 E5        29.80F
LA VETA PASS   FAIR      30  23  74 SW20G32   29.95F WCI  18
SAGUACHE       CLOUDY    39  21  48 NW7       29.82S
$$

COZ035-036-038>040-270600-
...NORTHERN COLORADO FRONT RANGE...

CITY           SKY/WX    TMP DP  RH WIND       PRES   REMARKS
DENVER INTL AP MOCLDY    37  30  75 SE7       29.70F
DMNS CITY PARK   N/A     47  30  51 E8G14     29.70F
AURORA         MOCLDY    40  32  74 S9        29.72S
FRONT RANGE AP NOT AVBL
ERIE MUNI ARPT CLOUDY    48  32  54 E6        29.71S
BOULDER MUN AP RAIN      50  30  46 NW8G18    29.69F
CENTENNIAL     FAIR      42  32  67 S12       29.72S
BROOMFIELD     NOT AVBL
FORT COLLINS   FAIR      45  36  70 E5        29.71F
LONGMONT       FAIR      50  33  52 NW5       29.72F
$$

COZ041-046-047-076>085-087-088-270600-
...PIKES PEAK/PALMER DIVIDE AND SOUTHERN FOOTHILLS...

CITY           SKY/WX    TMP DP  RH WIND       PRES   REMARKS
COLO. SPRINGS  FAIR      42  34  73 CALM      29.76F
A. F. ACADEMY  FAIR      35  31  86 N5        29.75F WCI  31
SCHRIEVER AFB  FAIR      38  34  84 NE7       29.76F
ELLICOTT       FAIR     N/A N/A N/A SE8       29.74F
FALCON         FAIR      36  33  87 CALM      29.78S
FORT CARSON    FAIR      43  34  72 SW7       29.74F
LIMON          CLOUDY    41  36  82 S6        29.74F
MONUMENT HILL  FAIR      32  30  93 S7        29.77S WCI  26
TRINIDAD       FAIR      43  38  82 NW7       29.75S
$$

COZ042>045-048>051-090-091-270600-
...NORTHEAST COLORADO...

CITY           SKY/WX    TMP DP  RH WIND       PRES   REMARKS
GREELEY ARPT   MOCLDY    45  38  76 E8        29.71F
AKRON          CLOUDY    44  35  70 S6        29.72S
BURLINGTON     NOT AVBL
WRAY           NOT AVBL
STERLING       MOCLDY    43  41  93 E6        29.71S
HOLYOKE        FAIR      43  36  75 SE6       29.72S
FORT MORGAN    FAIR      42  38  86 N8        29.73F
$$

COZ086-089-092>099-270600-
...SOUTHEAST COLORADO...

CITY           SKY/WX    TMP DP  RH WIND       PRES   REMARKS
PUEBLO         FAIR      47  36  65 E7        29.72F
LA JUNTA       FAIR      50  36  58 S16       29.71F
LAMAR          FAIR      44  36  73 S7        29.70F
SPRINGFIELD      N/A     42  36  79 SW10      29.75S
$$




USA.gov is the U.S. government's official web portal to all federal, state and local government web resources and services.